sat.trackr.live / text

‹ back to catalog

STARLINK-30896

NORAD 58353 · 2023-177C

PAYLOAD ACTIVE UNKNOWN

§ Identity

Operator
Country
US
Launch date
2023-11-18
Launch site
AFETR
Launch vehicle
Mass (kg)
RCS (m²)

Purposes: comms

External: N2YO · Heavens-Above · Gunter

§ Orbital elements

Epoch: 2026-05-24T23:48:35.687808Z

Period
94.27 min
Inclination
43.0012°
Eccentricity
0.0001100
Mean motion
15.27577069 rev/d
Perigee alt
482.3 km
Apogee alt
483.8 km
Semi-major
6,861.2 km
B*
2.5398e-5
RAAN
137.8869°
Arg perigee
269.8998°
Mean anomaly
90.1727°
Rev number
14,150

§ Raw data

STARLINK-308961 58353U 23177C   26144.99207972  .00000437  00000+0  25398-4 0  99902 58353  43.0012 137.8869 0001100 269.8998  90.1727 15.27577069141507

JSON: /api/v1/satellites/58353 · /tle

For live sub-satellite position, see the globe view (requires WebGL).

§ Visibility from observer

Set your observer location to see the next 7 days of passes ≥ 10°. The values pass through the URL so the page stays shareable.

No JS? Fill the form by hand. The geolocation button needs JavaScript.